Satellite-Ground Cal/Val Site Overpasses Predictions

Prediction of Satellite NPP Overpassing Cal/Val Site: Antarctic Dome C

Ground Cal/Val Site Location: Latitude: -75.10, Longitude: 123.35; Satellite-Ground Site NADIR distance within 100 km.

Table of predicted overpasses for the next 14.0 days since TLE Epoch: 9/28/2024
Interval Starting Time Ending Time Minimum Distance Time Minimum Distance (km)
1 09/29/2024 14:54:34 09/29/2024 14:55:02 09/29/2024 14:54:48 20.59
2 09/30/2024 14:35:50 09/30/2024 14:36:04 09/30/2024 14:35:57 86.54
3 10/01/2024 07:37:20 10/01/2024 07:37:47 10/01/2024 07:37:33 35.24
4 10/02/2024 07:18:32 10/02/2024 07:18:51 10/02/2024 07:18:42 75.20
5 10/04/2024 15:00:41 10/04/2024 15:01:05 10/04/2024 15:00:53 56.48
6 10/05/2024 14:41:48 10/05/2024 14:42:13 10/05/2024 14:42:00 52.85
7 10/06/2024 07:43:27 10/06/2024 07:43:48 10/06/2024 07:43:38 69.25
8 10/07/2024 07:24:33 10/07/2024 07:25:00 10/07/2024 07:24:46 39.06
9 10/09/2024 15:06:52 10/09/2024 15:07:02 10/09/2024 15:06:57 92.89
